AFL1703 USNN-USTR

Flight info

Callsign AFL1703
Flight time 1h 23m
Altitude 32000
Route DERUR G356 NH A843 NASDA T797 NERUG
Aircraft B738/M-S/L

Departure

Time 2026-04-30 17:51
Airport Nizhnevartovsk Airport (USNN)

Arrival

Time 2026-04-30 19:14
Airport Roshchino International Airport (USTR)
Time Latitude Longitude Altitude Speed Heading
2026-04-30 17:39 60.95094 76.49150 195 ft 3 kts 131°
2026-04-30 17:41 60.95269 76.49462 185 ft 0 kts 318°
2026-04-30 17:43 60.95291 76.49412 187 ft 5 kts 297°
2026-04-30 17:44 60.95172 76.49123 191 ft 14 kts 222°
2026-04-30 17:44 60.94974 76.48750 185 ft 12 kts 222°
2026-04-30 17:46 60.94728 76.48190 184 ft 4 kts 264°
2026-04-30 17:47 60.94720 76.47922 184 ft 8 kts 264°
2026-04-30 17:48 60.94511 76.47415 201 ft 13 kts 222°
2026-04-30 17:48 60.94315 76.47046 187 ft 13 kts 222°
2026-04-30 17:49 60.93943 76.46361 185 ft 2 kts 153°
2026-04-30 17:50 60.94332 76.47080 187 ft 101 kts 42°
2026-04-30 17:51 60.96961 76.51351 2067 ft 172 kts
2026-04-30 17:52 60.98417 76.46111 3879 ft 197 kts 245°
2026-04-30 17:53 60.91024 76.40190 6152 ft 254 kts 228°
2026-04-30 17:54 60.87429 76.28001 9770 ft 251 kts 244°
2026-04-30 17:55 60.83698 76.14068 11358 ft 316 kts 243°
2026-04-30 17:56 60.79320 75.98098 14394 ft 325 kts 243°
2026-04-30 17:57 60.75969 75.85962 16440 ft 330 kts 243°
2026-04-30 17:58 60.72533 75.73582 18438 ft 337 kts 243°
2026-04-30 17:59 60.67719 75.56919 20674 ft 344 kts 242°
2026-04-30 18:00 60.62688 75.40073 22767 ft 353 kts 242°
2026-04-30 18:00 60.58829 75.27184 24176 ft 358 kts 242°
2026-04-30 18:01 60.56236 75.18560 25005 ft 360 kts 242°
2026-04-30 18:02 60.52272 75.05433 26174 ft 365 kts 242°
2026-04-30 18:02 60.48272 74.92262 27265 ft 369 kts 242°
2026-04-30 18:03 60.44199 74.78930 28302 ft 372 kts 242°
2026-04-30 18:04 60.40084 74.65530 29503 ft 371 kts 242°
2026-04-30 18:05 60.34714 74.48145 31166 ft 363 kts 242°
2026-04-30 18:06 60.29387 74.30960 32188 ft 364 kts 242°
2026-04-30 18:08 60.19856 74.00541 32199 ft 363 kts 242°
2026-04-30 18:10 60.08890 73.66018 32215 ft 370 kts 241°
2026-04-30 18:11 59.99170 73.35843 32215 ft 371 kts 240°
2026-04-30 18:13 59.92200 73.14446 32214 ft 369 kts 240°
2026-04-30 18:14 59.85154 72.93013 32208 ft 365 kts 240°
2026-04-30 18:15 59.76634 72.67352 32199 ft 366 kts 239°
2026-04-30 18:16 59.70932 72.50328 32203 ft 375 kts 239°
2026-04-30 18:17 59.68065 72.41824 32195 ft 367 kts 239°
2026-04-30 18:18 59.63769 72.29128 32212 ft 374 kts 239°
2026-04-30 18:18 59.60883 72.20640 32186 ft 370 kts 238°
2026-04-30 18:19 59.58025 72.12268 32192 ft 366 kts 238°
2026-04-30 18:19 59.55153 72.03876 32210 ft 372 kts 238°
2026-04-30 18:20 59.52229 71.95363 32197 ft 376 kts 238°
2026-04-30 18:20 59.49814 71.88363 32191 ft 369 kts 238°
2026-04-30 18:21 59.46457 71.78659 32205 ft 371 kts 238°
2026-04-30 18:21 59.44006 71.71596 32204 ft 376 kts 238°
2026-04-30 18:22 59.41068 71.63164 32188 ft 370 kts 238°
2026-04-30 18:22 59.36734 71.50768 32209 ft 368 kts 237°
2026-04-30 18:23 59.33803 71.42426 32213 ft 376 kts 237°
2026-04-30 18:23 59.30821 71.34034 32185 ft 372 kts 237°
2026-04-30 18:24 59.26392 71.21660 32200 ft 374 kts 237°
2026-04-30 18:25 59.23387 71.13291 32186 ft 377 kts 237°
2026-04-30 18:25 59.18927 71.00922 32173 ft 367 kts 237°
2026-04-30 18:26 59.14470 70.88617 32197 ft 376 kts 236°
2026-04-30 18:27 59.09951 70.76212 32165 ft 368 kts 236°
2026-04-30 18:28 59.05525 70.64122 32174 ft 365 kts 236°
2026-04-30 18:28 59.01115 70.52134 32178 ft 365 kts 236°
2026-04-30 18:29 58.95184 70.36111 32164 ft 365 kts 236°
2026-04-30 18:30 58.89231 70.20135 32170 ft 367 kts 236°
2026-04-30 18:31 58.84743 70.08164 32170 ft 368 kts 235°
2026-04-30 18:32 58.80225 69.96172 32177 ft 368 kts 235°
2026-04-30 18:33 58.75704 69.84232 32173 ft 369 kts 235°
2026-04-30 18:33 58.71154 69.72278 32173 ft 369 kts 234°
2026-04-30 18:34 58.66592 69.60351 32166 ft 369 kts 234°
2026-04-30 18:35 58.63560 69.52457 32163 ft 369 kts 234°
2026-04-30 18:35 58.60511 69.44546 32159 ft 368 kts 234°
2026-04-30 18:36 58.55932 69.32713 32158 ft 368 kts 234°
2026-04-30 18:37 58.51362 69.20961 32158 ft 368 kts 234°
2026-04-30 18:37 58.48302 69.13125 32156 ft 368 kts 234°
2026-04-30 18:38 58.45237 69.05301 32159 ft 368 kts 233°
2026-04-30 18:38 58.42165 68.97483 32162 ft 368 kts 233°
2026-04-30 18:39 58.39094 68.89689 32158 ft 369 kts 233°
2026-04-30 18:39 58.35960 68.81773 32161 ft 377 kts 233°
2026-04-30 18:40 58.32801 68.73831 32133 ft 373 kts 233°
2026-04-30 18:40 58.29695 68.66043 32147 ft 371 kts 233°
2026-04-30 18:41 58.26550 68.58177 32155 ft 376 kts 233°
2026-04-30 18:41 58.23398 68.50319 32140 ft 370 kts 232°
2026-04-30 18:42 58.20255 68.42507 32156 ft 375 kts 232°
2026-04-30 18:42 58.15501 68.30725 32136 ft 376 kts 233°
2026-04-30 18:45 58.04940 67.85369 32123 ft 370 kts 244°
2026-04-30 18:45 58.03949 67.80904 31951 ft 369 kts 244°
2026-04-30 18:45 58.02956 67.76448 31252 ft 370 kts 244°
2026-04-30 18:46 58.01964 67.71996 30717 ft 365 kts 244°
2026-04-30 18:46 58.00983 67.67602 30266 ft 360 kts 244°
2026-04-30 18:46 58.00020 67.63302 29930 ft 352 kts 244°
2026-04-30 18:46 57.99078 67.59103 29640 ft 343 kts 244°
2026-04-30 18:47 57.98145 67.54967 29367 ft 345 kts 244°
2026-04-30 18:47 57.97189 67.50748 29098 ft 352 kts 244°
2026-04-30 18:47 57.96221 67.46481 28846 ft 355 kts 244°
2026-04-30 18:47 57.95269 67.42283 28557 ft 352 kts 244°
2026-04-30 18:48 57.94307 67.38049 28286 ft 350 kts 244°
2026-04-30 18:48 57.93348 67.33832 28022 ft 349 kts 244°
2026-04-30 18:48 57.92392 67.29638 27759 ft 348 kts 244°
2026-04-30 18:48 57.91439 67.25463 27494 ft 347 kts 244°
2026-04-30 18:49 57.90482 67.21282 27236 ft 347 kts 244°
2026-04-30 18:49 57.89525 67.17111 26979 ft 347 kts 244°
2026-04-30 18:49 57.88568 67.12948 26693 ft 345 kts 244°
2026-04-30 18:49 57.87631 67.08875 26286 ft 341 kts 244°
2026-04-30 18:50 57.86688 67.04783 25840 ft 338 kts 244°
2026-04-30 18:50 57.85756 67.00749 25402 ft 335 kts 244°
2026-04-30 18:50 57.84831 66.96749 24965 ft 333 kts 244°
2026-04-30 18:50 57.83910 66.92778 24533 ft 331 kts 244°
2026-04-30 18:51 57.82989 66.88819 24073 ft 330 kts 244°
2026-04-30 18:51 57.82073 66.84885 23656 ft 328 kts 244°
2026-04-30 18:51 57.81158 66.80962 23160 ft 327 kts 244°
2026-04-30 18:51 57.80259 66.77113 22696 ft 325 kts 244°
2026-04-30 18:52 57.79353 66.73241 22268 ft 322 kts 244°
2026-04-30 18:52 57.78448 66.69381 21848 ft 320 kts 244°
2026-04-30 18:52 57.77565 66.65622 21439 ft 317 kts 243°
2026-04-30 18:52 57.76678 66.61854 21030 ft 315 kts 243°
2026-04-30 18:53 57.75797 66.58116 20627 ft 313 kts 243°
2026-04-30 18:53 57.74921 66.54403 20224 ft 311 kts 243°
2026-04-30 18:53 57.74048 66.50714 19827 ft 309 kts 243°
2026-04-30 18:53 57.73179 66.47046 19435 ft 307 kts 243°
2026-04-30 18:54 57.72313 66.43397 19044 ft 306 kts 243°
2026-04-30 18:54 57.71447 66.39753 18647 ft 305 kts 243°
2026-04-30 18:54 57.70586 66.36138 18231 ft 304 kts 243°
2026-04-30 18:54 57.69725 66.32521 17796 ft 303 kts 243°
2026-04-30 18:55 57.68868 66.28936 17375 ft 301 kts 243°
2026-04-30 18:55 57.67122 66.21846 16602 ft 300 kts 238°
2026-04-30 18:55 57.65967 66.18661 16103 ft 303 kts 230°
2026-04-30 18:56 57.62919 66.13001 14897 ft 314 kts 224°
2026-04-30 18:56 57.61339 66.10181 14426 ft 314 kts 224°
2026-04-30 18:56 57.59767 66.07369 14003 ft 313 kts 224°
2026-04-30 18:57 57.56638 66.01757 13108 ft 310 kts 224°
2026-04-30 18:57 57.55088 65.98977 12682 ft 308 kts 224°
2026-04-30 18:57 57.53547 65.96215 12257 ft 307 kts 224°
2026-04-30 18:58 57.50460 65.90695 11344 ft 306 kts 223°
2026-04-30 18:58 57.48949 65.87983 10937 ft 305 kts 224°
2026-04-30 18:58 57.47464 65.85200 10576 ft 297 kts 225°
2026-04-30 18:59 57.44741 65.79997 10252 ft 265 kts 225°
2026-04-30 19:00 57.41137 65.73135 9634 ft 235 kts 225°
2026-04-30 19:00 57.40011 65.70999 9379 ft 234 kts 225°
2026-04-30 19:00 57.37665 65.66566 8884 ft 253 kts 225°
2026-04-30 19:01 57.35302 65.61705 8289 ft 251 kts 231°
2026-04-30 19:01 57.34230 65.59154 8020 ft 250 kts 231°
2026-04-30 19:02 57.32153 65.53978 7473 ft 250 kts 234°
2026-04-30 19:02 57.30247 65.48676 6935 ft 247 kts 235°
2026-04-30 19:03 57.28357 65.43378 6420 ft 245 kts 235°
2026-04-30 19:03 57.26482 65.38128 5875 ft 243 kts 235°
2026-04-30 19:04 57.24630 65.32949 5419 ft 239 kts 235°
2026-04-30 19:04 57.22830 65.27918 4996 ft 233 kts 235°
2026-04-30 19:05 57.21070 65.22999 4665 ft 226 kts 235°
2026-04-30 19:05 57.19332 65.18153 4502 ft 227 kts 235°
2026-04-30 19:06 57.17556 65.13200 4122 ft 235 kts 235°
2026-04-30 19:06 57.16676 65.10741 4024 ft 231 kts 235°
2026-04-30 19:06 57.14861 65.05676 3433 ft 233 kts 235°
2026-04-30 19:07 57.13106 65.00789 3020 ft 227 kts 235°
2026-04-30 19:07 57.12234 64.98363 2776 ft 227 kts 235°
2026-04-30 19:08 57.10812 64.94428 2583 ft 212 kts 231°
2026-04-30 19:08 57.07902 64.92903 1926 ft 196 kts 159°
2026-04-30 19:08 57.06642 64.93838 1740 ft 196 kts 150°
2026-04-30 19:09 57.05324 64.96938 1689 ft 188 kts 103°
2026-04-30 19:09 57.05025 64.99264 1671 ft 186 kts 95°
2026-04-30 19:09 57.05238 65.01591 1688 ft 188 kts 65°
2026-04-30 19:10 57.06707 65.05571 1676 ft 188 kts 55°
2026-04-30 19:10 57.08205 65.09461 1666 ft 180 kts 55°
2026-04-30 19:11 57.08903 65.11216 1639 ft 163 kts 50°
2026-04-30 19:11 57.10459 65.14307 1696 ft 156 kts 48°
2026-04-30 19:11 57.11188 65.15770 1650 ft 154 kts 48°
2026-04-30 19:12 57.11891 65.17296 1544 ft 155 kts 53°
2026-04-30 19:12 57.12533 65.18813 1426 ft 146 kts 51°
2026-04-30 19:12 57.13183 65.20227 1234 ft 144 kts 49°
2026-04-30 19:13 57.14466 65.23001 897 ft 144 kts 49°
2026-04-30 19:13 57.15774 65.25747 644 ft 141 kts 47°
2026-04-30 19:13 57.16430 65.27090 512 ft 142 kts 48°
2026-04-30 19:14 57.17094 65.28440 390 ft 142 kts 47°
2026-04-30 19:14 57.17698 65.29654 382 ft 109 kts 47°
2026-04-30 19:14 57.18103 65.30480 372 ft 65 kts 47°
2026-04-30 19:14 57.18328 65.30939 358 ft 39 kts 48°
2026-04-30 19:15 57.18459 65.31217 363 ft 22 kts 49°
2026-04-30 19:15 57.18640 65.31590 352 ft 13 kts 48°
2026-04-30 19:15 57.18687 65.31687 351 ft 11 kts 48°
2026-04-30 19:16 57.18691 65.31816 351 ft 11 kts 129°
2026-04-30 19:16 57.18636 65.31910 353 ft 11 kts 137°
2026-04-30 19:16 57.18636 65.32121 343 ft 12 kts 49°
2026-04-30 19:17 57.18701 65.32257 336 ft 16 kts 48°
2026-04-30 19:17 57.18833 65.32541 330 ft 13 kts 66°
2026-04-30 19:17 57.18810 65.32690 333 ft 13 kts 128°
2026-04-30 19:18 57.18710 65.32892 333 ft 13 kts 136°
2026-04-30 19:18 57.18622 65.33038 330 ft 13 kts 139°
2026-04-30 19:18 57.18562 65.33156 332 ft 13 kts 118°
2026-04-30 19:19 57.18585 65.33297 335 ft 12 kts 49°
2026-04-30 19:19 57.18619 65.33433 339 ft 12 kts 87°
2026-04-30 19:19 57.18565 65.33693 337 ft 11 kts 134°
2026-04-30 19:20 57.18511 65.33795 337 ft 11 kts 134°
2026-04-30 19:20 57.18450 65.33876 336 ft 11 kts 147°
2026-04-30 19:20 57.18356 65.34077 338 ft 10 kts 133°
2026-04-30 19:21 57.18333 65.34121 338 ft 3 kts 134°
2026-04-30 19:21 57.18319 65.34186 338 ft 3 kts 79°
2026-04-30 19:22 57.18345 65.34240 338 ft 3 kts 45°
2026-04-30 19:22 57.18350 65.34249 339 ft 0 kts 45°